Hourly Weather Montana

Today, 4 July, Saturday

Time Temperature Precipitation Wind Pressure Humidity
00:00 +23°C° 0 mm 1 mps 733 mmHg 83%
01:00 +22°C° 0 mm 1 mps 733 mmHg 84%
02:00 +22°C° 0 mm 1 mps 733 mmHg 84%
03:00 +22°C° 0 mm 1 mps 733 mmHg 85%
04:00 +21°C° 0 mm 1 mps 733 mmHg 86%
05:00 +21°C° 0 mm 1 mps 733 mmHg 87%
06:00 +23°C° 0.1 mm 1 mps 733 mmHg 83%
07:00 +24°C° 0.1 mm 1 mps 733 mmHg 79%
08:00 +25°C° 0.1 mm 1 mps 734 mmHg 75%
09:00 +27°C° 0.2 mm 1 mps 734 mmHg 70%
10:00 +28°C° 0.2 mm 2 mps 734 mmHg 65%
11:00 +29°C° 0.2 mm 2 mps 733 mmHg 60%
12:00 +29°C° 0.3 mm 2 mps 733 mmHg 60%
13:00 +30°C° 0.3 mm 2 mps 733 mmHg 60%
14:00 +30°C° 0.3 mm 2 mps 733 mmHg 60%
15:00 +30°C° 0.6 mm 2 mps 732 mmHg 62%
16:00 +29°C° 0.6 mm 2 mps 732 mmHg 64%
17:00 +29°C° 0.6 mm 2 mps 732 mmHg 66%
18:00 +27°C° 0.5 mm 2 mps 732 mmHg 70%
19:00 +26°C° 0.5 mm 1 mps 732 mmHg 75%
20:00 +24°C° 0.5 mm 1 mps 732 mmHg 79%
21:00 +24°C° 0.1 mm 1 mps 732 mmHg 81%
22:00 +23°C° 0.1 mm 1 mps 733 mmHg 82%
23:00 +22°C° 0.1 mm 1 mps 733 mmHg 84%

Tomorrow, 5 July, Sunday

Time Temperature Precipitation Wind Pressure Humidity
00:00 +22°C° 0 mm 1 mps 733 mmHg 84%
01:00 +22°C° 0 mm 1 mps 733 mmHg 85%
02:00 +21°C° 0 mm 1 mps 733 mmHg 86%
03:00 +21°C° 0 mm 1 mps 733 mmHg 86%
04:00 +21°C° 0 mm 1 mps 733 mmHg 87%
05:00 +20°C° 0 mm 1 mps 733 mmHg 87%
06:00 +22°C° 0 mm 1 mps 733 mmHg 84%
07:00 +23°C° 0 mm 1 mps 733 mmHg 80%
08:00 +25°C° 0 mm 1 mps 733 mmHg 77%
09:00 +26°C° 0 mm 2 mps 733 mmHg 74%
10:00 +27°C° 0 mm 2 mps 733 mmHg 71%
11:00 +28°C° 0 mm 3 mps 733 mmHg 69%
12:00 +28°C° 0.4 mm 3 mps 733 mmHg 69%
13:00 +28°C° 0.4 mm 3 mps 733 mmHg 68%
14:00 +28°C° 0.4 mm 3 mps 732 mmHg 68%
15:00 +28°C° 0.9 mm 2 mps 732 mmHg 69%
16:00 +28°C° 0.9 mm 2 mps 732 mmHg 70%
17:00 +28°C° 0.9 mm 2 mps 732 mmHg 70%
18:00 +27°C° 1 mm 2 mps 732 mmHg 74%
19:00 +26°C° 1 mm 2 mps 732 mmHg 78%
20:00 +24°C° 1 mm 2 mps 732 mmHg 82%
21:00 +24°C° 1.3 mm 1 mps 732 mmHg 84%
22:00 +23°C° 1.3 mm 1 mps 732 mmHg 86%
23:00 +23°C° 1.3 mm 1 mps 732 mmHg 88%

Day after tomorrow, 6 July, Monday

Time Temperature Precipitation Wind Pressure Humidity
00:00 +23°C° 0.6 mm 1 mps 732 mmHg 89%
01:00 +22°C° 0.6 mm 1 mps 732 mmHg 89%
02:00 +22°C° 0.6 mm 1 mps 732 mmHg 90%
03:00 +22°C° 0.4 mm 1 mps 732 mmHg 91%
04:00 +21°C° 0.4 mm 1 mps 731 mmHg 92%
05:00 +21°C° 0.4 mm 1 mps 731 mmHg 94%
06:00 +22°C° 0.7 mm 1 mps 731 mmHg 92%
07:00 +23°C° 0.7 mm 1 mps 731 mmHg 90%
08:00 +24°C° 0.7 mm 1 mps 732 mmHg 88%
09:00 +25°C° 0.7 mm 1 mps 731 mmHg 85%
10:00 +26°C° 0.7 mm 1 mps 731 mmHg 82%
11:00 +27°C° 0.7 mm 1 mps 731 mmHg 78%
12:00 +27°C° 0.8 mm 1 mps 731 mmHg 75%
13:00 +28°C° 0.8 mm 1 mps 731 mmHg 72%
14:00 +29°C° 0.8 mm 1 mps 730 mmHg 69%
15:00 +29°C° 0.5 mm 1 mps 730 mmHg 68%
16:00 +29°C° 0.5 mm 1 mps 730 mmHg 66%
17:00 +29°C° 0.5 mm 1 mps 729 mmHg 65%
18:00 +27°C° 0.2 mm 1 mps 729 mmHg 72%
19:00 +26°C° 0.2 mm 1 mps 729 mmHg 78%
20:00 +24°C° 0.2 mm 1 mps 729 mmHg 85%
21:00 +24°C° 0 mm 1 mps 729 mmHg 85%
22:00 +23°C° 0 mm 1 mps 729 mmHg 86%
23:00 +23°C° 0 mm 1 mps 729 mmHg 87%

7 July, Tuesday

Time Temperature Precipitation Wind Pressure Humidity
00:00 +22°C° 0.1 mm 1 mps 729 mmHg 88%
01:00 +22°C° 0.1 mm 1 mps 729 mmHg 89%
02:00 +22°C° 0.1 mm 1 mps 729 mmHg 90%
03:00 +22°C° 0 mm 1 mps 729 mmHg 91%
04:00 +21°C° 0 mm 1 mps 729 mmHg 92%
05:00 +21°C° 0 mm 1 mps 729 mmHg 93%
06:00 +23°C° 0.1 mm 1 mps 729 mmHg 90%
07:00 +24°C° 0.1 mm 1 mps 729 mmHg 86%
08:00 +25°C° 0.1 mm 1 mps 730 mmHg 83%
09:00 +26°C° 0.7 mm 1 mps 730 mmHg 78%
10:00 +27°C° 0.7 mm 2 mps 730 mmHg 74%
11:00 +29°C° 0.7 mm 2 mps 730 mmHg 69%
12:00 +28°C° 0.8 mm 3 mps 730 mmHg 70%
13:00 +28°C° 0.8 mm 3 mps 730 mmHg 71%
14:00 +28°C° 0.8 mm 3 mps 730 mmHg 72%
15:00 +28°C° 0.4 mm 4 mps 730 mmHg 73%
16:00 +27°C° 0.4 mm 4 mps 730 mmHg 74%
17:00 +27°C° 0.4 mm 4 mps 730 mmHg 75%
18:00 +26°C° 0.2 mm 3 mps 731 mmHg 79%
19:00 +24°C° 0.2 mm 3 mps 731 mmHg 82%
20:00 +23°C° 0.2 mm 2 mps 732 mmHg 86%
21:00 +21°C° 0 mm 2 mps 732 mmHg 86%
22:00 +21°C° 0 mm 2 mps 733 mmHg 86%
23:00 +20°C° 0 mm 2 mps 733 mmHg 86%

8 July, Wednesday

Time Temperature Precipitation Wind Pressure Humidity
00:00 +20°C° 0 mm 2 mps 734 mmHg 86%
01:00 +19°C° 0 mm 2 mps 734 mmHg 86%
02:00 +19°C° 0 mm 2 mps 734 mmHg 86%
03:00 +18°C° 0 mm 2 mps 734 mmHg 85%
04:00 +18°C° 0 mm 2 mps 734 mmHg 84%
05:00 +18°C° 0 mm 2 mps 734 mmHg 83%
06:00 +19°C° 0 mm 2 mps 734 mmHg 81%
07:00 +20°C° 0 mm 2 mps 734 mmHg 78%
08:00 +20°C° 0 mm 2 mps 735 mmHg 76%
09:00 +21°C° 0 mm 2 mps 735 mmHg 73%
10:00 +23°C° 0 mm 2 mps 735 mmHg 71%
11:00 +23°C° 0 mm 2 mps 735 mmHg 68%
12:00 +24°C° 0 mm 2 mps 735 mmHg 66%
13:00 +25°C° 0 mm 2 mps 735 mmHg 65%
14:00 +26°C° 0 mm 2 mps 735 mmHg 63%
15:00 +26°C° 0 mm 2 mps 735 mmHg 62%
16:00 +26°C° 0 mm 2 mps 735 mmHg 61%
17:00 +27°C° 0 mm 2 mps 735 mmHg 60%
18:00 +25°C° 0 mm 2 mps 735 mmHg 65%
19:00 +23°C° 0 mm 1 mps 735 mmHg 69%
20:00 +22°C° 0 mm 1 mps 735 mmHg 74%
21:00 +21°C° 0 mm 1 mps 736 mmHg 74%
22:00 +20°C° 0 mm 1 mps 736 mmHg 74%
23:00 +20°C° 0 mm 1 mps 736 mmHg 74%

9 July, Thursday

Time Temperature Precipitation Wind Pressure Humidity
00:00 +19°C° 0 mm 1 mps 737 mmHg 75%
01:00 +19°C° 0 mm 1 mps 737 mmHg 76%
02:00 +19°C° 0 mm 1 mps 737 mmHg 76%
03:00 +18°C° 0 mm 1 mps 737 mmHg 78%
04:00 +16°C° 0 mm 0 mps 737 mmHg 79%
05:00 +15°C° 0 mm 0 mps 737 mmHg 80%
06:00 +17°C° 0 mm 0 mps 737 mmHg 76%
07:00 +21°C° 0 mm 1 mps 737 mmHg 72%
08:00 +22°C° 0 mm 1 mps 737 mmHg 68%
09:00 +23°C° 0 mm 1 mps 737 mmHg 65%
10:00 +24°C° 0 mm 1 mps 737 mmHg 62%
11:00 +26°C° 0 mm 1 mps 737 mmHg 59%
12:00 +26°C° 0 mm 1 mps 737 mmHg 58%
13:00 +27°C° 0 mm 1 mps 737 mmHg 58%
14:00 +27°C° 0 mm 1 mps 737 mmHg 57%
15:00 +27°C° 0 mm 1 mps 736 mmHg 57%
16:00 +28°C° 0 mm 1 mps 736 mmHg 58%
17:00 +28°C° 0 mm 1 mps 736 mmHg 58%
18:00 +26°C° 0 mm 1 mps 736 mmHg 65%
19:00 +24°C° 0 mm 1 mps 736 mmHg 72%
20:00 +23°C° 0 mm 1 mps 736 mmHg 79%
21:00 +22°C° 0 mm 1 mps 736 mmHg 80%
22:00 +21°C° 0 mm 1 mps 736 mmHg 82%
23:00 +20°C° 0 mm 1 mps 736 mmHg 83%
Show more